Starlink 32486

operational
NORAD ID: 61854 Int'l Des: 2024-202 Owner: SPXS Country: US Constellation: starlink
LEOCIRCULAR

About Starlink 32486

Description loading...

Live Position

Loading 3D Globe...

Upcoming Passes

Altitude History

Altitude vs Time

uPlot chart will show altitude changes over time

Two-Line Element Set

1 61854U 24202K 25304.83528703 -.00003637 00000-0 -12278-3 0 9998
2 61854 43.0038 245.4707 0000891 249.6778 110.3978 15.27561924 55634
Epoch: Oct 31, 2025 • Age: 4 hours

Current Status

Altitude 491.6 km
Velocity 7.62 km/s
Sub-Earth Point -32.05°S, 153.98°E
Launch Date Nov 7, 2024
Age 0.9 years
Type internet

Technical Details

Classification Payload
Mass 730.00 kg
Dry Mass 700.00 kg
Total Mass 730.00 kg
Length 0.30 m
Diameter 4.10 m
Span 29.00 m
Shape Box + pan
Manufacturer SPXS
Bus Type Starlink V2M
Phase Status In Orbit
Owner/State SPXS/US

Large Constellations

Loading constellations...